TimePST,TemperatureF,Dew PointF,Humidity,Sea Level PressureIn,VisibilityMPH,Wind Direction,Wind SpeedMPH,Gust SpeedMPH,PrecipitationIn,Events,Conditions,WindDirDegrees,DateUTC
12:15 AM,39.2,35.6,87,29.87,0.8,Calm,Calm,-,N/A,,Overcast,0,2013-12-21 08:15:00
12:35 AM,39.2,35.6,87,29.88,0.8,Calm,Calm,-,N/A,,Overcast,0,2013-12-21 08:35:00
12:55 AM,39.2,35.6,87,29.89,3.0,Calm,Calm,-,N/A,,Overcast,0,2013-12-21 08:55:00
1:15 AM,39.2,35.6,87,29.88,7.0,Calm,Calm,-,N/A,,Overcast,0,2013-12-21 09:15:00
1:35 AM,39.2,35.6,87,29.90,5.0,NNE,3.5,-,N/A,,Overcast,30,2013-12-21 09:35:00
1:55 AM,41.0,37.4,87,29.90,10.0,NE,4.6,-,N/A,,Overcast,40,2013-12-21 09:55:00
2:15 AM,41.0,37.4,87,29.92,10.0,NE,5.8,-,N/A,,Overcast,40,2013-12-21 10:15:00
2:35 AM,41.0,37.4,87,29.93,10.0,NNE,6.9,-,N/A,,Overcast,20,2013-12-21 10:35:00
2:55 AM,41.0,37.4,87,29.95,10.0,NNE,11.5,-,N/A,,Overcast,30,2013-12-21 10:55:00
3:15 AM,41.0,37.4,87,29.97,10.0,NNE,8.1,-,N/A,,Overcast,30,2013-12-21 11:15:00
3:35 AM,41.0,37.4,87,29.97,10.0,NNE,8.1,-,N/A,,Overcast,30,2013-12-21 11:35:00
3:55 AM,39.2,37.4,93,29.98,10.0,NNE,9.2,-,N/A,,Overcast,30,2013-12-21 11:55:00
4:15 AM,39.2,37.4,93,29.98,10.0,NNE,6.9,-,N/A,,Overcast,20,2013-12-21 12:15:00
4:35 AM,39.2,37.4,93,30.00,10.0,NNE,5.8,-,N/A,,Overcast,20,2013-12-21 12:35:00
4:55 AM,39.2,37.4,93,30.00,10.0,North,3.5,-,N/A,,Overcast,360,2013-12-21 12:55:00
5:15 AM,39.2,35.6,87,30.02,10.0,NNE,3.5,-,N/A,,Overcast,30,2013-12-21 13:15:00
5:35 AM,39.2,35.6,87,30.02,10.0,Calm,Calm,-,N/A,,Overcast,0,2013-12-21 13:35:00
5:55 AM,39.2,35.6,87,30.03,10.0,Calm,Calm,-,N/A,,Overcast,0,2013-12-21 13:55:00
6:15 AM,39.2,37.4,93,30.05,10.0,Calm,Calm,-,N/A,,Overcast,0,2013-12-21 14:15:00
6:35 AM,39.2,35.6,87,30.05,8.0,Calm,Calm,-,N/A,,Overcast,0,2013-12-21 14:35:00
6:55 AM,39.2,35.6,87,30.06,7.0,Calm,Calm,-,N/A,,Overcast,0,2013-12-21 14:55:00
7:15 AM,39.2,35.6,87,30.07,3.0,Calm,Calm,-,N/A,,Overcast,0,2013-12-21 15:15:00
7:35 AM,39.2,35.6,87,30.06,5.0,Calm,Calm,-,N/A,,Overcast,0,2013-12-21 15:35:00
7:55 AM,39.2,35.6,87,30.07,3.0,Calm,Calm,-,N/A,,Overcast,0,2013-12-21 15:55:00
8:15 AM,39.2,35.6,87,30.08,2.0,Calm,Calm,-,N/A,,Overcast,0,2013-12-21 16:15:00
8:35 AM,39.2,35.6,87,30.08,5.0,Calm,Calm,-,N/A,,Overcast,0,2013-12-21 16:35:00
8:55 AM,39.2,37.4,93,30.09,5.0,Calm,Calm,-,N/A,,Overcast,0,2013-12-21 16:55:00
9:15 AM,39.2,37.4,93,30.11,1.5,Calm,Calm,-,N/A,,Overcast,0,2013-12-21 17:15:00
9:35 AM,39.2,37.4,93,30.10,1.8,Calm,Calm,-,N/A,,Overcast,0,2013-12-21 17:35:00
9:55 AM,41.0,37.4,87,30.12,3.0,Calm,Calm,-,N/A,,Overcast,0,2013-12-21 17:55:00
10:15 AM,41.0,37.4,87,30.12,2.5,Calm,Calm,-,N/A,,Overcast,0,2013-12-21 18:15:00
10:35 AM,41.0,37.4,87,30.13,4.0,Calm,Calm,-,N/A,,Overcast,0,2013-12-21 18:35:00
10:55 AM,41.0,37.4,87,30.14,2.5,Calm,Calm,-,N/A,,Overcast,0,2013-12-21 18:55:00
11:15 AM,41.0,37.4,87,30.13,2.0,Calm,Calm,-,N/A,,Overcast,0,2013-12-21 19:15:00
11:35 AM,41.0,37.4,87,30.13,2.0,Calm,Calm,-,N/A,,Overcast,0,2013-12-21 19:35:00
11:55 AM,42.8,37.4,81,30.13,1.8,Calm,Calm,-,N/A,,Overcast,0,2013-12-21 19:55:00
12:15 PM,42.8,37.4,81,30.12,2.0,Calm,Calm,-,N/A,,Overcast,0,2013-12-21 20:15:00
12:35 PM,42.8,37.4,81,30.12,2.5,Calm,Calm,-,N/A,,Overcast,0,2013-12-21 20:35:00
12:55 PM,42.8,37.4,81,30.13,1.0,Calm,Calm,-,N/A,,Overcast,0,2013-12-21 20:55:00
1:15 PM,42.8,39.2,87,30.13,2.5,Calm,Calm,-,N/A,,Overcast,0,2013-12-21 21:15:00
1:35 PM,42.8,39.2,87,30.12,2.5,East,3.5,-,N/A,,Overcast,100,2013-12-21 21:35:00
1:55 PM,42.8,39.2,87,30.13,10.0,Calm,Calm,-,N/A,,Overcast,0,2013-12-21 21:55:00
2:15 PM,42.8,39.2,87,30.13,2.0,SE,3.5,-,N/A,,Overcast,130,2013-12-21 22:15:00
2:35 PM,42.8,39.2,87,30.11,2.5,Calm,Calm,-,N/A,,Overcast,0,2013-12-21 22:35:00
2:55 PM,42.8,39.2,87,30.11,4.0,Calm,Calm,-,N/A,,Overcast,0,2013-12-21 22:55:00
3:15 PM,42.8,39.2,87,30.13,4.0,North,4.6,-,N/A,,Overcast,360,2013-12-21 23:15:00
3:35 PM,42.8,39.2,87,30.12,6.0,NNE,4.6,-,N/A,,Overcast,30,2013-12-21 23:35:00
3:55 PM,42.8,39.2,87,30.15,0.5,NNE,6.9,-,N/A,,Overcast,30,2013-12-21 23:55:00
4:15 PM,42.8,39.2,87,30.14,2.0,NE,9.2,-,N/A,,Overcast,40,2013-12-22 00:15:00
4:35 PM,42.8,39.2,87,30.15,4.0,NE,4.6,-,N/A,,Overcast,50,2013-12-22 00:35:00
4:55 PM,42.8,39.2,87,30.16,5.0,NE,5.8,-,N/A,,Overcast,40,2013-12-22 00:55:00
5:15 PM,42.8,39.2,87,30.15,7.0,NNE,8.1,-,N/A,,Overcast,30,2013-12-22 01:15:00
5:35 PM,42.8,39.2,87,30.16,5.0,NE,4.6,-,N/A,,Overcast,40,2013-12-22 01:35:00
5:55 PM,42.8,37.4,81,30.15,5.0,Calm,Calm,-,N/A,,Overcast,0,2013-12-22 01:55:00
6:15 PM,42.8,39.2,87,30.16,3.0,NNE,4.6,-,N/A,,Overcast,30,2013-12-22 02:15:00
6:35 PM,42.8,39.2,87,30.15,2.0,Calm,Calm,-,N/A,,Overcast,0,2013-12-22 02:35:00
6:55 PM,42.8,39.2,87,30.16,1.5,Calm,Calm,-,N/A,,Overcast,0,2013-12-22 02:55:00
7:15 PM,42.8,39.2,87,30.16,1.0,Calm,Calm,-,N/A,,Overcast,0,2013-12-22 03:15:00
7:35 PM,42.8,39.2,87,30.15,0.5,Calm,Calm,-,N/A,,Overcast,0,2013-12-22 03:35:00
7:55 PM,42.8,39.2,87,30.16,0.2,Calm,Calm,-,N/A,,Overcast,0,2013-12-22 03:55:00
8:15 PM,42.8,39.2,87,30.17,0.2,Calm,Calm,-,N/A,,Overcast,0,2013-12-22 04:15:00
8:35 PM,41.0,39.2,93,30.18,0.2,Calm,Calm,-,N/A,,Overcast,0,2013-12-22 04:35:00
8:55 PM,41.0,39.2,93,30.17,0.2,Calm,Calm,-,N/A,,Overcast,0,2013-12-22 04:55:00
9:15 PM,42.8,39.2,87,30.17,0.2,Calm,Calm,-,N/A,,Overcast,0,2013-12-22 05:15:00
9:35 PM,42.8,37.4,81,30.18,0.2,Calm,Calm,-,N/A,,Overcast,0,2013-12-22 05:35:00
9:55 PM,42.8,39.2,87,30.17,0.2,Calm,Calm,-,N/A,,Overcast,0,2013-12-22 05:55:00
10:15 PM,42.8,39.2,87,30.17,0.2,Calm,Calm,-,N/A,,Overcast,0,2013-12-22 06:15:00
10:35 PM,42.8,39.2,87,30.18,0.2,Calm,Calm,-,N/A,,Overcast,0,2013-12-22 06:35:00
10:55 PM,41.0,39.2,93,30.18,0.5,Calm,Calm,-,N/A,,Overcast,0,2013-12-22 06:55:00
11:15 PM,41.0,39.2,93,30.17,0.5,Calm,Calm,-,N/A,,Overcast,0,2013-12-22 07:15:00
11:35 PM,42.8,39.2,87,30.18,0.5,Calm,Calm,-,N/A,,Overcast,0,2013-12-22 07:35:00
11:55 PM,42.8,39.2,87,30.19,0.5,Calm,Calm,-,N/A,,Overcast,0,2013-12-22 07:55:00